Time,TemperatureF,DewpointF,PressureIn,WindDirection,WindDirectionDegrees,WindSpeedMPH,WindSpeedGustMPH,Humidity,HourlyPrecipIn,Conditions,Clouds,dailyrainin,SoftwareType,DateUTC
2013-07-19 00:00:00,62.0,-99.9,29.68,South,190,22.0,-999.0,-999,-99.99,,,-99.99,,2013-07-19 04:00:00,
2013-07-19 00:33:00,62.0,-99.9,29.68,South,190,22.0,-999.0,-999,-99.99,,,-99.99,,2013-07-19 04:33:00,
2013-07-19 00:44:00,62.0,-99.9,29.68,South,190,22.0,-999.0,-999,-99.99,,,-99.99,,2013-07-19 04:44:00,
2013-07-19 00:52:00,62.0,-99.9,29.68,South,190,22.0,-999.0,-999,-99.99,,,-99.99,,2013-07-19 04:52:00,
2013-07-19 01:00:00,61.0,-99.9,29.67,SW,220,21.0,-999.0,-999,-99.99,,,-99.99,,2013-07-19 05:00:00,
2013-07-19 01:32:00,61.0,-99.9,29.67,SW,220,21.0,-999.0,-999,-99.99,,,-99.99,,2013-07-19 05:32:00,
2013-07-19 01:43:00,61.0,-99.9,29.67,SW,220,21.0,-999.0,-999,-99.99,,,-99.99,,2013-07-19 05:43:00,
2013-07-19 01:53:00,61.0,-99.9,29.67,SW,220,21.0,-999.0,-999,-99.99,,,-99.99,,2013-07-19 05:53:00,
2013-07-19 09:00:00,65.0,-99.9,29.57,South,190,17.0,-999.0,-999,-99.99,,,-99.99,,2013-07-19 13:00:00,
2013-07-19 09:43:00,65.0,-99.9,29.57,South,190,17.0,-999.0,-999,-99.99,,,-99.99,,2013-07-19 13:43:00,
2013-07-19 09:53:00,65.0,-99.9,29.57,South,190,17.0,-999.0,-999,-99.99,,,-99.99,,2013-07-19 13:53:00,
2013-07-19 10:00:00,69.0,-99.9,29.57,South,190,16.0,-999.0,-999,-99.99,,,-99.99,,2013-07-19 14:00:00,
2013-07-19 10:33:00,69.0,-99.9,29.57,South,190,16.0,-999.0,-999,-99.99,,,-99.99,,2013-07-19 14:33:00,
2013-07-19 10:43:00,69.0,-99.9,29.57,South,190,16.0,-999.0,-999,-99.99,,,-99.99,,2013-07-19 14:43:00,
2013-07-19 10:53:00,69.0,-99.9,29.57,South,190,16.0,-999.0,-999,-99.99,,,-99.99,,2013-07-19 14:53:00,
2013-07-19 12:00:00,73.0,-99.9,29.63,WSW,240,6.0,-999.0,-999,-99.99,,,-99.99,,2013-07-19 16:00:00,
2013-07-19 12:43:00,73.0,-99.9,29.63,WSW,240,6.0,-999.0,-999,-99.99,,,-99.99,,2013-07-19 16:43:00,
2013-07-19 12:53:00,73.0,-99.9,29.63,WSW,240,6.0,-999.0,-999,-99.99,,,-99.99,,2013-07-19 16:53:00,
2013-07-19 13:00:00,75.0,-99.9,29.62,WNW,290,16.0,-999.0,-999,-99.99,,,-99.99,,2013-07-19 17:00:00,
2013-07-19 13:43:00,75.0,-99.9,29.62,WNW,290,16.0,-999.0,-999,-99.99,,,-99.99,,2013-07-19 17:43:00,
2013-07-19 13:52:00,75.0,-99.9,29.62,WNW,290,16.0,-999.0,-999,-99.99,,,-99.99,,2013-07-19 17:52:00,
2013-07-19 14:00:00,75.0,-99.9,29.67,WNW,300,15.0,-999.0,-999,-99.99,,,-99.99,,2013-07-19 18:00:00,
2013-07-19 14:43:00,75.0,-99.9,29.67,WNW,300,15.0,-999.0,-999,-99.99,,,-99.99,,2013-07-19 18:43:00,
2013-07-19 14:52:00,75.0,-99.9,29.67,WNW,300,15.0,-999.0,-999,-99.99,,,-99.99,,2013-07-19 18:52:00,
2013-07-19 15:00:00,73.0,-99.9,29.66,West,270,15.0,-999.0,-999,-99.99,,,-99.99,,2013-07-19 19:00:00,
2013-07-19 15:43:00,73.0,-99.9,29.66,West,270,15.0,-999.0,-999,-99.99,,,-99.99,,2013-07-19 19:43:00,
2013-07-19 15:52:00,73.0,-99.9,29.66,West,270,15.0,-999.0,-999,-99.99,,,-99.99,,2013-07-19 19:52:00,
2013-07-19 16:00:00,74.0,-99.9,29.65,WNW,300,24.0,-999.0,-999,-99.99,,,-99.99,,2013-07-19 20:00:00,
2013-07-19 16:43:00,74.0,-99.9,29.65,WNW,300,24.0,-999.0,-999,-99.99,,,-99.99,,2013-07-19 20:43:00,
2013-07-19 16:52:00,74.0,-99.9,29.65,WNW,300,24.0,-999.0,-999,-99.99,,,-99.99,,2013-07-19 20:52:00,
2013-07-19 17:00:00,76.0,-99.9,29.68,NW,320,17.0,-999.0,-999,-99.99,,,-99.99,,2013-07-19 21:00:00,
2013-07-19 17:43:00,76.0,-99.9,29.68,NW,320,17.0,-999.0,-999,-99.99,,,-99.99,,2013-07-19 21:43:00,
2013-07-19 17:52:00,76.0,-99.9,29.68,NW,320,17.0,-999.0,-999,-99.99,,,-99.99,,2013-07-19 21:52:00,
2013-07-19 18:00:00,74.0,-99.9,29.68,NW,310,18.0,-999.0,-999,-99.99,,,-99.99,,2013-07-19 22:00:00,
2013-07-19 18:43:00,74.0,-99.9,29.68,NW,310,18.0,-999.0,-999,-99.99,,,-99.99,,2013-07-19 22:43:00,
2013-07-19 18:52:00,74.0,-99.9,29.68,NW,310,18.0,-999.0,-999,-99.99,,,-99.99,,2013-07-19 22:52:00,
2013-07-19 19:00:00,72.0,-99.9,29.69,NNW,330,18.0,-999.0,-999,-99.99,,,-99.99,,2013-07-19 23:00:00,
2013-07-19 19:43:00,72.0,-99.9,29.69,NNW,330,18.0,-999.0,-999,-99.99,,,-99.99,,2013-07-19 23:43:00,
2013-07-19 19:52:00,72.0,-99.9,29.69,NNW,330,18.0,-999.0,-999,-99.99,,,-99.99,,2013-07-19 23:52:00,